Theta_e
345 344 347 344 344 343 343 345 346 347 348 350 352 353 357 357 358 358 354 354 353 354
349 343 342 345 345 342 341 339 340 340 341 342 343 347 349 353 349 350 355 356 355 352
342 341 340 339 337 337 336 336 336 335 335 336 338 340 341 341 344 344 346 345 345 347
337 337 336 334 333 333 334 335 334 334 334 335 335 336 336 336 336 336 337 337 337 339
335 334 332 332 331 332 332 334 333 333 333 333 334 334 332 332 333 333 333 335 335 335
331 330 330 330 330 331 331 331 331 330 328 330 327 326 326 326 329 332 332 329 330 332
329 329 329 329 330 329 329 328 329 328 328 329 327 325 326 326 328 330 330 332 332 330
330 330 329 327 327 326 326 326 326 326 326 326 322 319 322 324 326 327 327 329 329 330
329 327 326 326 325 324 323 322 322 321 321 319 315 316 317 321 323 325 324 324 325 326
326 325 325 323 321 320 320 320 320 320 320 318 316 315 316 319 321 322 323 319 317 318
323 323 324 321 320 320 319 319 319 319 319 318 314 313 314 317 319 321 323 323 318 317
323 323 322 320 321 320 320 320 319 319 319 319 317 312 312 316 317 317 319 322 322 318
322 321 320 322 321 325 325 322 321 320 320 313 318 310 311 313 313 315 313 317 319 314
322 323 323 323 326 324 322 322 321 320 322 323 317 317 310 310 314 313 313 312 311 313
Wind_Speed
3 4 8 9 4 3 4 5 8 8 8 9 10 9 9 7 6 6 7 9 8 8
8 9 8 10 3 3 4 5 6 8 8 9 9 9 9 5 8 8 7 8 7 7
8 8 8 7 5 5 5 5 6 7 7 8 8 9 10 8 6 9 7 7 8 7
8 8 7 6 5 5 6 6 7 8 8 8 8 9 8 9 7 10 9 8 8 11
8 7 7 6 6 7 6 6 7 8 8 8 8 11 11 11 10 10 11 11 11 11
8 8 7 7 6 6 6 7 7 7 7 7 8 9 9 9 10 9 7 6 8 12
8 7 7 6 6 7 6 6 6 6 6 6 8 11 11 11 10 10 9 9 10 7
8 7 7 7 8 8 8 8 8 8 9 8 10 11 13 12 9 10 10 10 10 10
8 8 8 8 8 7 7 8 8 8 9 10 9 14 16 13 8 9 10 10 12 12
8 8 7 7 8 8 7 7 7 8 8 10 12 16 16 16 8 9 10 10 9 10
7 7 6 7 7 6 6 6 6 7 8 9 11 14 17 20 10 10 10 9 9 10
6 6 6 7 6 4 4 4 5 5 7 9 10 14 17 17 9 10 9 9 10 11
6 6 6 5 4 2 2 3 4 5 5 5 8 10 11 14 9 9 9 9 10 19
7 6 5 4 2 3 3 4 5 5 4 1 4 5 6 11 9 10 8 8 9 10
Wind_Direction
117 105 100 89 70 37 3 351 349 341 338 340 336 332 324 293 284 272 270 262 258 273
95 84 95 74 54 42 4 347 355 336 335 337 333 329 325 327 357 337 317 296 272 268
89 81 77 80 67 44 13 4 349 347 347 346 342 350 336 338 343 329 325 321 336 337
94 92 88 83 70 45 34 7 6 2 357 356 0 357 349 339 337 331 326 323 326 317
90 83 78 65 60 42 28 12 11 3 8 4 7 4 2 352 349 341 344 341 330 318
81 73 65 55 46 42 22 13 15 11 7 15 14 1 359 344 332 335 334 347 339 333
79 70 65 60 51 43 38 30 28 21 17 20 15 12 357 349 335 335 342 337 340 352
89 80 77 69 65 65 59 59 50 43 36 20 36 21 355 345 351 351 341 343 342 354
88 79 83 79 72 67 66 60 51 47 47 35 35 4 0 345 11 0 4 356 358 345
89 98 95 93 88 80 76 77 68 60 53 53 28 9 4 343 22 13 18 21 2 356
118 121 113 110 102 97 89 73 61 56 45 47 48 15 0 338 16 22 26 31 32 13
120 128 124 110 95 85 77 64 66 49 46 29 45 22 5 345 11 16 31 33 36 20
113 125 116 109 102 71 323 56 350 14 31 83 25 48 6 351 15 13 6 22 21 58
136 131 118 110 50 351 344 338 349 357 347 6 44 63 40 7 13 357 359 7 15 25